Location: General Nathan Twining Observatory
(34.5931°N, 106.8201°W)
Time: 15:34:47
(UTC-06:00)

Cosmos 2298 Rocket - Pass Details

Date: 20 September 2017
Orbit: 775 x 784 km, 74.0° (Epoch: 20 October)

Event Time Altitude Azimuth Distance (km) Brightness Sun altitude
Rises 19:59:14 0° 348° (NNW) 3,278 7.6 -11.7°
Reaches altitude 10° 20:01:42 10° 353° (N) 2,347 6.7 -12.2°
Maximum altitude 20:06:55 52° 70° (ENE) 969 4.2 -13.2°
Drops below altitude 10° 20:12:04 10° 146° (SSE) 2,332 6.1 -14.3°
Enters shadow 20:12:12 - 147° (SSE) 2,380 6.1 -14.3°
